![]() |
EMODnet Physics ERDDAP
Easier access to scientific data |
log in|
Brought to you by EMODnet Physics |
| Dataset Title: | NDBC - Collection of dew point temperature (DEWT) TimeSeries - IN SITU MultiPointTimeSeriesObservation
|
| Institution: | NDBC (Dataset ID: TS_DEWT_NDBC) |
| Information: | Summary
| License
| FGDC
| ISO 19115
| Metadata
| Background
| Subset
| Data Access Form
| Make a graph
|
| Name | Last modified | Size | Description | |
|---|---|---|---|---|
| Parent Directory | - | - | ||
| 42363_TS_DEWT_012010.nc | 02-Jan-2025 05:04 | 429289 | ||
| 42363_TS_DEWT_012011.nc | 02-Jan-2025 05:06 | 429277 | ||
| 42363_TS_DEWT_012013.nc | 19-Jan-2026 01:26 | 429289 | ||
| 42363_TS_DEWT_012015.nc | 19-Jan-2026 01:33 | 429269 | ||
| 42363_TS_DEWT_012016.nc | 19-Jan-2026 01:35 | 429295 | ||
| 42363_TS_DEWT_022010.nc | 02-Jan-2025 05:04 | 429288 | ||
| 42363_TS_DEWT_022011.nc | 02-Jan-2025 05:07 | 429283 | ||
| 42363_TS_DEWT_022013.nc | 19-Jan-2026 01:27 | 429288 | ||
| 42363_TS_DEWT_022014.nc | 19-Jan-2026 01:30 | 429292 | ||
| 42363_TS_DEWT_022015.nc | 19-Jan-2026 01:33 | 449021 | ||
| 42363_TS_DEWT_022016.nc | 19-Jan-2026 01:35 | 449556 | ||
| 42363_TS_DEWT_032009.nc | 02-Jan-2025 05:03 | 449270 | ||
| 42363_TS_DEWT_032010.nc | 02-Jan-2025 05:04 | 450274 | ||
| 42363_TS_DEWT_032011.nc | 02-Jan-2025 05:07 | 448923 | ||
| 42363_TS_DEWT_032013.nc | 19-Jan-2026 01:27 | 443444 | ||
| 42363_TS_DEWT_032014.nc | 19-Jan-2026 01:30 | 450183 | ||
| 42363_TS_DEWT_032015.nc | 19-Jan-2026 01:33 | 449422 | ||
| 42363_TS_DEWT_032016.nc | 19-Jan-2026 01:35 | 450384 | ||
| 42363_TS_DEWT_042009.nc | 02-Jan-2025 05:03 | 448767 | ||
| 42363_TS_DEWT_042010.nc | 02-Jan-2025 05:05 | 448937 | ||
| 42363_TS_DEWT_042011.nc | 02-Jan-2025 05:07 | 449787 | ||
| 42363_TS_DEWT_042013.nc | 19-Jan-2026 01:27 | 449266 | ||
| 42363_TS_DEWT_042014.nc | 19-Jan-2026 01:30 | 449266 | ||
| 42363_TS_DEWT_042015.nc | 19-Jan-2026 01:33 | 427743 | ||
| 42363_TS_DEWT_042016.nc | 19-Jan-2026 01:36 | 448743 | ||
| 42363_TS_DEWT_052009.nc | 02-Jan-2025 05:03 | 429425 | ||
| 42363_TS_DEWT_052010.nc | 02-Jan-2025 05:05 | 449113 | ||
| 42363_TS_DEWT_052011.nc | 02-Jan-2025 05:07 | 449488 | ||
| 42363_TS_DEWT_052013.nc | 19-Jan-2026 01:28 | 450127 | ||
| 42363_TS_DEWT_052014.nc | 19-Jan-2026 01:31 | 429493 | ||
| 42363_TS_DEWT_052015.nc | 19-Jan-2026 01:34 | 429495 | ||
| 42363_TS_DEWT_052016.nc | 19-Jan-2026 01:36 | 429491 | ||
| 42363_TS_DEWT_062009.nc | 02-Jan-2025 05:03 | 429606 | ||
| 42363_TS_DEWT_062010.nc | 02-Jan-2025 05:05 | 429608 | ||
| 42363_TS_DEWT_062011.nc | 02-Jan-2025 05:07 | 429613 | ||
| 42363_TS_DEWT_062013.nc | 19-Jan-2026 01:28 | 429622 | ||
| 42363_TS_DEWT_062016.nc | 19-Jan-2026 01:36 | 429594 | ||
| 42363_TS_DEWT_072005.nc | 02-Jan-2025 05:01 | 428508 | ||
| 42363_TS_DEWT_072009.nc | 02-Jan-2025 05:03 | 429618 | ||
| 42363_TS_DEWT_072010.nc | 02-Jan-2025 05:05 | 429614 | ||
| 42363_TS_DEWT_072011.nc | 02-Jan-2025 05:08 | 429613 | ||
| 42363_TS_DEWT_072014.nc | 19-Jan-2026 01:31 | 429618 | ||
| 42363_TS_DEWT_082009.nc | 02-Jan-2025 05:03 | 429618 | ||
| 42363_TS_DEWT_082010.nc | 02-Jan-2025 05:05 | 429610 | ||
| 42363_TS_DEWT_082011.nc | 02-Jan-2025 05:08 | 429308 | ||
| 42363_TS_DEWT_082012.nc | 19-Jan-2026 01:25 | 429622 | ||
| 42363_TS_DEWT_092009.nc | 02-Jan-2025 05:03 | 429611 | ||
| 42363_TS_DEWT_092010.nc | 02-Jan-2025 05:06 | 429617 | ||
| 42363_TS_DEWT_092011.nc | 02-Jan-2025 05:08 | 450985 | ||
| 42363_TS_DEWT_092012.nc | 19-Jan-2026 01:25 | 450798 | ||
| 42363_TS_DEWT_092014.nc | 19-Jan-2026 01:32 | 451240 | ||
| 42363_TS_DEWT_102009.nc | 02-Jan-2025 05:04 | 450442 | ||
| 42363_TS_DEWT_102010.nc | 02-Jan-2025 05:06 | 450243 | ||
| 42363_TS_DEWT_102011.nc | 02-Jan-2025 05:08 | 450024 | ||
| 42363_TS_DEWT_102012.nc | 19-Jan-2026 01:25 | 450011 | ||
| 42363_TS_DEWT_102014.nc | 19-Jan-2026 01:32 | 450105 | ||
| 42363_TS_DEWT_102015.nc | 19-Jan-2026 01:34 | 451047 | ||
| 42363_TS_DEWT_112009.nc | 02-Jan-2025 05:04 | 450051 | ||
| 42363_TS_DEWT_112010.nc | 02-Jan-2025 05:06 | 450683 | ||
| 42363_TS_DEWT_112011.nc | 02-Jan-2025 05:09 | 450426 | ||
| 42363_TS_DEWT_112012.nc | 19-Jan-2026 01:26 | 449527 | ||
| 42363_TS_DEWT_112015.nc | 19-Jan-2026 01:34 | 450259 | ||
| 42363_TS_DEWT_122009.nc | 02-Jan-2025 05:04 | 426282 | ||
| 42363_TS_DEWT_122010.nc | 02-Jan-2025 05:06 | 451908 | ||
| 42363_TS_DEWT_122011.nc | 02-Jan-2025 05:09 | 429707 | ||
| 42363_TS_DEWT_122012.nc | 19-Jan-2026 01:26 | 450066 | ||
| 42363_TS_DEWT_122015.nc | 19-Jan-2026 01:35 | 450889 | ||